This is the latest recevied weather packets stored in our database for station/object DJ4RO-13. If no packets are shown the sender has not sent any weather packets the latest 10 day(s).
| Time | Temp. | Humidity | Pressure | Rain* | Wind** | Luminosity | Snow |
|---|---|---|---|---|---|---|---|
| 1777493901 | 5° C | 71% | 1036.6 hPa | 0 mm | - | 0 W/m² | - |
| 1777493580 | 5° C | 70% | 1036.2 hPa | 0 mm | - | 0 W/m² | - |
| 1777493260 | 5° C | 70% | 1036.4 hPa | 0 mm | - | 0 W/m² | - |
| 1777492941 | 5° C | 71% | 1036.4 hPa | 0 mm | - | 0 W/m² | - |
| 1777492621 | 5° C | 71% | 1036.3 hPa | 0 mm | - | 0 W/m² | - |
| 1777492300 | 5° C | 71% | 1036.4 hPa | 0 mm | - | 0 W/m² | - |
| 1777491980 | 5° C | 68% | 1036.1 hPa | 0 mm | - | 0 W/m² | - |
| 1777491661 | 5.56° C | 67% | 1036.1 hPa | 0 mm | - | 0 W/m² | - |
| 1777491341 | 5.56° C | 66% | 1036 hPa | 0 mm | - | 0 W/m² | - |
| 1777491020 | 6.11° C | 65% | 1036 hPa | 0 mm | - | 0 W/m² | - |
| 1777490701 | 6.11° C | 63% | 1036.1 hPa | 0 mm | - | 0 W/m² | - |
| 1777490381 | 6.67° C | 60% | 1035.9 hPa | 0 mm | - | 0 W/m² | - |
| 1777490061 | 6.67° C | 61% | 1035.6 hPa | 0 mm | - | 0 W/m² | - |
| 1777489740 | 6.67° C | 60% | 1035.6 hPa | 0 mm | - | 0 W/m² | - |
| 1777489421 | 6.67° C | 60% | 1035.5 hPa | 0 mm | - | 0 W/m² | - |
| 1777489101 | 6.67° C | 59% | 1035.6 hPa | 0 mm | - | 0 W/m² | - |
| 1777488781 | 7.22° C | 55% | 1035.4 hPa | 0 mm | - | 0 W/m² | - |
| 1777488460 | 7.78° C | 52% | 1035.5 hPa | 0 mm | - | 0 W/m² | - |
| 1777488140 | 8.33° C | 52% | 1035.4 hPa | 0 mm | - | 1 W/m² | - |
| 1777487820 | 8.89° C | 50% | 1035.5 hPa | 0 mm | - | 1 W/m² | - |
| 1777487500 | 9.44° C | 47% | 1035.5 hPa | 0 mm | - | 2 W/m² | - |
| 1777487180 | 10° C | 44% | 1035.4 hPa | 0 mm | - | 4 W/m² | - |
| 1777486844 | 10.56° C | 45% | 1035.2 hPa | 0 mm | - | 5 W/m² | - |
| 1777486524 | 10.56° C | 42% | 1035.4 hPa | 0 mm | - | 7 W/m² | - |
| 1777486205 | 11.11° C | 41% | 1035.3 hPa | 0 mm | - | 9 W/m² | - |
* Rain latest hour (hover to see other rain measurements)
** Current wind speed in m/s (hover to see current wind gust speed)